Track GONETS M-7 now! 10-day predictions GONETS M-7 is classified as:
1 39251U 13048C 25187.83155072 .00000052 00000-0 30744-3 0 9998 2 39251 82.4869 201.3993 0015748 244.7609 115.1839 12.42898953536118